Back to catalog

DELTA 1 DEB

AliveSSO
NORAD 37639·DEBRIS·🇺🇸 United States

Launched Mar 5, 1978 from Vandenberg Space Force Base

Loading…

Next Passes (next 24 hours)

TLE

FreshSource: Space-Track

Epoch: Sep 13, 2026, 13:03 UTC

1 37639U 78026JA  26256.54426306  .00000108  00000-0  12584-3 0  9994
2 37639  98.9031 162.9281 0115168 160.4974 325.3970 13.84588016722657

Track DELTA 1 DEB in real time with AllMySat

Download on the App Store